Latest Coastal Weather Observations for Troughton Island

IDW60701

Issued at 4:03 am WST Friday 9 December 2016 (issued every 10 minutes, with the page automatically refreshed every 10 minutes)

About coastal observations | Map of coastal stations | Coastal observations for WA | Marine services | Other Formats
Station Details ID: 001007 Name: TROUGHTON ISLAND Lat: -13.75 Lon: 126.15 Height: 6.0 m
Data from the previous 72 hours. | See also: Recent months at Troughton Island
Date/Time
WST
Temp
°C
Wind Pressure Rain since
9am
mm
Weather Cloud Vis
km
Sea
Height
m
Swell
Dir  Spd
kts
Gust
kts
hPa Trend Height
m
Period
s
Dir
09/04:00am 30.4 W 13 14 1006.3 - - - - - - - - -
09/03:30am 30.2 W 13 15 1006.2 - 0.0 - - - - - - -
09/03:00am 30.3 W 12 14 1006.1 - 0.0 - - - - - - -
09/02:30am 30.2 W 12 14 1006.0 - 0.0 - - - - - - -
09/02:00am 30.3 W 12 14 1005.8 - 0.0 - - - - - - -
09/01:30am 30.4 W 12 14 1005.9 - 0.0 - - - - - - -
09/01:00am 30.3 W 11 13 1006.0 - 0.0 - - - - - - -
09/12:30am 30.4 W 12 14 1006.3 - 0.0 - - - - - - -
09/12:00am 30.4 W 11 13 1006.5 - 0.0 - - - - - - -
 
Date/Time
WST
Temp
°C
Wind Pressure Rain since
9am
mm
Weather Cloud Vis
km
Sea
Height
m
Swell
Dir  Spd
kts
Gust
kts
hPa Trend Height
m
Period
s
Dir
08/11:30pm 30.4 WSW 12 14 1006.7 - 0.0 - - - - - - -
08/11:00pm 30.4 WSW 11 13 1007.0 - 0.0 - - - - - - -
08/10:30pm 30.6 WSW 12 14 1007.2 - 0.0 - - - - - - -
08/10:00pm 30.6 WSW 13 15 1007.1 - 0.0 - - - - - - -
08/09:30pm 30.6 W 12 14 1007.1 - 0.0 - - - - - - -
08/09:00pm 30.6 W 13 14 1006.8 - 0.0 - - - - - - -
08/08:30pm 30.7 W 13 14 1006.7 - 0.0 - - - - - - -
08/08:00pm 30.9 W 12 14 1006.4 - 0.0 - - - - - - -
08/07:30pm 30.8 W 11 14 1006.1 - 0.0 - - - - - - -
08/07:00pm 31.0 W 13 15 1006.0 - 0.0 - - - - - - -
08/06:30pm 31.0 W 13 16 1005.7 - 0.0 - - - - - - -
08/06:00pm 31.0 WSW 13 15 1005.6 - 0.0 - - - - - - -
08/05:30pm 31.3 WSW 15 18 1005.3 - 0.0 - - - - - - -
08/05:00pm 31.8 WSW 14 16 1005.3 - 0.0 - - - - - - -
08/04:30pm 32.2 W 12 15 1005.1 - 0.0 - - - - - - -
08/04:00pm 32.7 W 12 15 1004.7 - 0.0 - - - - - - -
08/03:30pm 33.1 WNW 14 16 1004.4 - 0.0 - - - - - - -
08/03:00pm 33.4 W 14 16 1004.4 - 0.0 - - - - - - -
08/02:30pm 33.9 W 14 17 1004.4 - 0.0 - - - - - - -
08/02:00pm 33.6 W 14 17 1005.0 - 0.0 - - - - - - -
08/01:30pm 33.7 W 15 17 1005.1 - 0.0 - - - - - - -
08/01:00pm 34.1 W 14 16 1005.5 - 0.0 - - - - - - -
08/12:30pm 34.4 W 13 16 1006.0 - 0.0 - - - - - - -
08/12:00pm 34.5 WSW 13 16 1006.4 - 0.0 - - - - - - -
08/11:30am 34.5 WSW 13 15 1006.8 - 0.0 - - - - - - -
08/11:00am 34.0 WSW 13 15 1007.1 - 0.0 - - - - - - -
08/10:30am 33.9 WSW 13 16 1007.5 - 0.0 - - - - - - -
08/10:00am 33.5 WSW 13 16 1007.9 - 0.0 - - - - - - -
08/09:30am 33.4 WSW 12 15 1007.9 - 0.0 - - - - - - -
08/09:00am 33.3 WSW 12 14 1008.0 - 0.0 - - - - - - -
08/08:30am 33.1 WSW 13 16 1007.9 - 0.0 - - - - - - -
08/08:00am 32.7 WSW 14 16 1008.1 - 0.0 - - - - - - -
08/07:30am 32.3 WSW 15 17 1007.8 - 0.0 - - - - - - -
08/07:00am 31.9 WSW 15 17 1007.7 - 0.0 - - - - - - -
08/06:30am 31.3 WSW 14 17 1007.6 - 0.0 - - - - - - -
08/06:00am 30.8 WSW 15 18 1007.5 - 0.0 - - - - - - -
08/05:30am 30.4 WSW 14 17 1007.2 - 0.0 - - - - - - -
08/05:00am 30.3 WSW 15 17 1006.8 - 0.0 - - - - - - -
08/04:30am 30.2 WSW 14 17 1006.5 - 0.0 - - - - - - -
08/04:00am 30.3 WSW 14 16 1006.3 - 0.0 - - - - - - -
08/03:30am 30.4 WSW 14 17 1006.2 - 0.0 - - - - - - -
08/03:00am 30.3 WSW 15 18 1006.0 - 0.0 - - - - - - -
08/02:30am 30.5 WSW 14 17 1006.1 - 0.0 - - - - - - -
08/02:00am 30.4 WSW 15 18 1006.3 - 0.0 - - - - - - -
08/01:30am 30.4 WSW 15 17 1006.4 - 0.0 - - - - - - -
08/01:00am 30.4 W 13 16 1006.7 - 0.0 - - - - - - -
08/12:30am 30.5 W 13 15 1006.9 - 0.0 - - - - - - -
08/12:00am 30.6 W 12 15 1007.3 - 0.0 - - - - - - -
 
Date/Time
WST
Temp
°C
Wind Pressure Rain since
9am
mm
Weather Cloud Vis
km
Sea
Height
m
Swell
Dir  Spd
kts
Gust
kts
hPa Trend Height
m
Period
s
Dir
07/11:30pm 30.5 W 12 14 1007.5 - 0.0 - - - - - - -
07/11:00pm 30.5 W 10 12 1007.9 - 0.0 - - - - - - -
07/10:30pm 30.5 W 12 14 1008.1 - 0.0 - - - - - - -
07/10:00pm 30.5 WNW 12 14 1008.0 - 0.0 - - - - - - -
07/09:30pm 30.6 WNW 11 13 1008.0 - 0.0 - - - - - - -
07/09:00pm 30.7 WNW 11 13 1008.1 - 0.0 - - - - - - -
07/08:30pm 30.7 WNW 13 15 1008.0 - 0.0 - - - - - - -
07/08:00pm 30.8 W 14 15 1008.1 - 0.0 - - - - - - -
07/07:30pm 30.9 W 13 15 1008.0 - 0.0 - - - - - - -
07/07:00pm 31.0 W 12 14 1007.5 - 0.0 - - - - - - -
07/06:30pm 31.0 W 12 14 1007.4 - 0.0 - - - - - - -
07/06:00pm 31.2 W 13 14 1006.9 - 0.0 - - - - - - -
07/05:30pm 31.4 W 14 15 1006.0 - 0.0 - - - - - - -
07/05:00pm 31.8 W 13 15 1005.8 - 0.0 - - - - - - -
07/04:30pm 32.5 W 13 16 1005.7 - 0.0 - - - - - - -
07/04:00pm 32.7 W 14 16 1005.8 - 0.0 - - - - - - -
07/03:30pm 32.6 WNW 14 16 1005.8 - 0.0 - - - - - - -
07/03:00pm 32.9 WNW 14 16 1006.0 - 0.0 - - - - - - -
07/02:30pm 33.2 WNW 13 15 1006.4 - 0.0 - - - - - - -
07/02:00pm 33.6 WNW 13 14 1006.9 - 0.0 - - - - - - -
07/01:30pm 34.0 WNW 13 15 1007.1 - 0.0 - - - - - - -
07/01:00pm 34.5 WNW 11 13 1007.5 - 0.0 - - - - - - -
07/12:30pm 34.2 W 11 13 1007.7 - 0.0 - - - - - - -
07/12:00pm 33.7 W 11 12 1008.1 - 0.0 - - - - - - -
07/11:30am 33.8 W 10 12 1008.3 - 0.0 - - - - - - -
07/11:00am 33.5 W 9 11 1008.6 - 0.0 - - - - - - -
07/10:30am 33.5 W 8 11 1009.1 - 0.0 - - - - - - -
07/10:00am 33.3 W 7 8 1009.4 - 0.0 - - - - - - -
07/09:30am 32.7 W 7 8 1009.6 - 0.0 - - - - - - -
07/09:00am 32.3 W 6 7 1009.9 - 0.0 - - - - - - -
07/08:30am 32.2 W 7 8 1009.9 - 0.0 - - - - - - -
07/08:00am 32.0 SSW 5 7 1009.9 - 0.0 - - - - - - -
07/07:30am 31.6 SW 5 6 1009.8 - 0.0 - - - - - - -
07/07:00am 31.3 SSE 5 6 1009.9 - 0.0 - - - - - - -
07/06:30am 31.1 SSW 7 9 1009.8 - 0.0 - - - - - - -
07/06:00am 30.6 S 6 8 1009.4 - 0.0 - - - - - - -
07/05:30am 30.2 SW 7 9 1009.0 - 0.0 - - - - - - -
07/05:00am 30.0 SW 8 11 1008.6 - 0.0 - - - - - - -
07/04:30am 30.1 SW 8 9 1008.4 - 0.0 - - - - - - -
07/04:00am 29.9 SW 8 9 1008.2 - 0.0 - - - - - - -
07/03:30am 30.0 SSW 8 10 1008.2 - 0.0 - - - - - - -
07/03:00am 30.3 S 9 10 1008.2 - 0.0 - - - - - - -
07/02:30am 30.3 SSW 8 9 1008.0 - 0.0 - - - - - - -
07/02:00am 30.2 SSW 8 9 1008.0 - 0.0 - - - - - - -
07/01:30am 30.1 WSW 9 11 1008.2 - 0.0 - - - - - - -
07/01:00am 30.2 WSW 10 12 1008.5 - 0.0 - - - - - - -
07/12:30am 30.1 WSW 9 10 1008.8 - 0.0 - - - - - - -
07/12:00am 30.2 WSW 10 11 1008.9 - 0.0 - - - - - - -
 
Date/Time
WST
Temp
°C
Wind Pressure Rain since
9am
mm
Weather Cloud Vis
km
Sea
Height
m
Swell
Dir  Spd
kts
Gust
kts
hPa Trend Height
m
Period
s
Dir
06/11:30pm 30.3 WSW 10 11 1009.3 - 0.0 - - - - - - -
06/11:00pm 30.6 WSW 9 11 1009.6 - 0.0 - - - - - - -
06/10:30pm 30.6 WSW 9 11 1009.7 - 0.0 - - - - - - -
06/10:00pm 30.4 W 10 11 1009.9 - 0.0 - - - - - - -
06/09:30pm 30.5 W 9 11 1010.1 - 0.0 - - - - - - -
06/09:00pm 30.5 W 10 12 1009.9 - 0.0 - - - - - - -
06/08:30pm 30.5 W 9 11 1009.7 - 0.0 - - - - - - -
06/08:00pm 30.6 WNW 10 11 1009.4 - 0.0 - - - - - - -
06/07:30pm 30.7 WNW 11 13 1009.3 - 0.0 - - - - - - -
06/07:00pm 30.6 WNW 11 12 1009.1 - 0.0 - - - - - - -
06/06:30pm 30.7 WNW 11 13 1008.7 - 0.0 - - - - - - -
06/06:00pm 30.6 NW 11 14 1008.0 - 0.0 - - - - - - -
06/05:30pm 31.1 NW 11 13 1007.8 - 0.0 - - - - - - -
06/05:00pm 31.3 NW 12 14 1007.1 - 0.0 - - - - - - -
06/04:30pm 31.9 NW 12 15 1006.7 - 0.0 - - - - - - -
06/04:00pm 32.9 NW 12 14 1006.5 - 0.0 - - - - - - -
06/03:30pm 32.8 NNW 11 13 1006.3 - 0.0 - - - - - - -
06/03:00pm 33.1 NW 11 14 1006.5 - 0.0 - - - - - - -
06/02:30pm 33.8 NNW 13 15 1007.0 - 0.0 - - - - - - -
06/02:00pm 33.7 N 12 14 1007.3 - 0.0 - - - - - - -
06/01:30pm 32.6 N 11 13 1007.6 - 0.0 - - - - - - -
06/01:00pm 32.7 N 10 13 1008.0 - 0.0 - - - - - - -
06/12:30pm 33.0 N 9 11 1008.7 - 0.0 - - - - - - -
06/12:00pm 33.1 NNW 8 11 1009.2 - 0.0 - - - - - - -
06/11:30am 33.6 NNW 7 10 1009.3 - 0.0 - - - - - - -
06/11:00am 33.1 NW 7 9 1009.6 - 0.0 - - - - - - -
06/10:30am 32.7 WNW 6 11 1009.9 - 0.0 - - - - - - -
06/10:00am 32.8 WNW 6 8 1010.3 - 0.0 - - - - - - -
06/09:30am 32.8 W 6 8 1010.8 - 0.0 - - - - - - -
06/09:00am 32.2 WSW 5 6 1010.9 - 0.0 - - - - - - -
06/08:30am 32.0 SW 5 7 1011.1 - 0.0 - - - - - - -
06/08:00am 31.5 SW 5 7 1011.0 - 0.0 - - - - - - -
06/07:30am 31.3 SSW 5 7 1010.6 - 0.0 - - - - - - -
06/07:00am 31.0 S 5 6 1010.5 - 0.0 - - - - - - -
06/06:30am 30.7 SSE 5 7 1010.4 - 0.0 - - - - - - -
06/06:00am 30.3 S 4 6 1010.2 - 0.0 - - - - - - -
06/05:30am 29.7 S 4 5 1010.0 - 0.0 - - - - - - -
06/05:00am 29.5 S 5 6 1009.7 - 0.0 - - - - - - -
06/04:30am 29.3 SW 5 7 1009.2 - 0.0 - - - - - - -

Other Formats:

Comma delimited format used in spreadsheet applications
http://www.bom.gov.au/fwo/IDW60701/IDW60701.94102.axf

JavaScript Object Notation format (JSON) in row-major order
http://www.bom.gov.au/fwo/IDW60701/IDW60701.94102.json